Wetterdaten: Samstag, 02.04.2016
Datum Zeit Auen-Temp. Temp gefhlt Luftfeuchte Luftdruck Regen Wind Richtung Richtung Sonnenschein Taupunkt Windben
02.04.2016 00:00 5,9 C 5,9 C 92 % 1017,7 hPa 0,0 mm 6,0 km/h (2 Bft) NO 45 0 min 4,7 C 13,1 km/h (3 Bft)
02.04.2016 00:03 5,9 C 5,8 C 92 % 1017,7 hPa 0,0 mm 6,6 km/h (2 Bft) O-NO 67 0 min 4,7 C 8,9 km/h (2 Bft)
02.04.2016 00:04 5,9 C 5,8 C 92 % 1017,7 hPa 0,0 mm 6,6 km/h (2 Bft) O-NO 67 0 min 4,7 C 8,9 km/h (2 Bft)
02.04.2016 00:05 5,9 C 5,8 C 92 % 1017,7 hPa 0,0 mm 6,6 km/h (2 Bft) O-NO 67 0 min 4,7 C 12,2 km/h (2 Bft)
02.04.2016 00:10 5,9 C 5,6 C 92 % 1017,9 hPa 0,0 mm 8,9 km/h (2 Bft) O-NO 67 0 min 4,7 C 10,4 km/h (2 Bft)
02.04.2016 00:15 5,8 C 5,5 C 92 % 1017,9 hPa 0,0 mm 9,8 km/h (2 Bft) O-NO 67 0 min 4,6 C 14,3 km/h (3 Bft)
02.04.2016 00:20 5,8 C 5,5 C 93 % 1017,9 hPa 0,0 mm 9,5 km/h (2 Bft) O-NO 67 0 min 4,8 C 11,9 km/h (2 Bft)
02.04.2016 00:25 5,8 C 5,4 C 93 % 1017,9 hPa 0,0 mm 9,8 km/h (2 Bft) NO 45 0 min 4,8 C 16,1 km/h (3 Bft)
02.04.2016 00:30 5,7 C 5,4 C 93 % 1017,8 hPa 0,0 mm 9,8 km/h (2 Bft) O-NO 67 0 min 4,7 C 17,0 km/h (3 Bft)
02.04.2016 00:35 5,7 C 5,4 C 93 % 1017,8 hPa 0,0 mm 8,9 km/h (2 Bft) N-NO 22 0 min 4,7 C 7,2 km/h (2 Bft)
02.04.2016 00:40 5,7 C 5,4 C 93 % 1017,8 hPa 0,0 mm 8,3 km/h (2 Bft) O-NO 67 0 min 4,7 C 6,6 km/h (2 Bft)
02.04.2016 00:45 5,8 C 5,7 C 93 % 1017,8 hPa 0,0 mm 6,6 km/h (2 Bft) NO 45 0 min 4,8 C 5,7 km/h (1 Bft)
02.04.2016 00:50 5,8 C 5,7 C 93 % 1017,8 hPa 0,0 mm 4,8 km/h (1 Bft) O-SO 112 0 min 4,8 C 5,1 km/h (1 Bft)
02.04.2016 00:55 5,8 C 5,7 C 93 % 1017,8 hPa 0,0 mm 4,5 km/h (1 Bft) N-NO 22 0 min 4,8 C 7,7 km/h (2 Bft)
02.04.2016 01:00 5,8 C 5,7 C 93 % 1017,8 hPa 0,0 mm 4,5 km/h (1 Bft) N-NO 22 0 min 4,8 C 6,9 km/h (2 Bft)
02.04.2016 01:05 5,8 C 5,8 C 93 % 1017,8 hPa 0,0 mm 3,9 km/h (1 Bft) O-NO 67 0 min 4,8 C 5,1 km/h (1 Bft)
02.04.2016 01:10 5,8 C 5,8 C 93 % 1017,6 hPa 0,0 mm 3,9 km/h (1 Bft) O-SO 112 0 min 4,8 C 6,3 km/h (2 Bft)
02.04.2016 01:15 5,8 C 5,8 C 93 % 1017,6 hPa 0,0 mm 5,1 km/h (1 Bft) N-NO 22 0 min 4,8 C 7,2 km/h (2 Bft)
02.04.2016 01:20 5,8 C 5,8 C 93 % 1017,6 hPa 0,0 mm 4,8 km/h (1 Bft) O-NO 67 0 min 4,8 C 0,0 km/h (0 Bft)
02.04.2016 01:25 5,8 C 5,8 C 93 % 1017,6 hPa 0,0 mm 2,1 km/h (1 Bft) O-NO 67 0 min 4,8 C 0,0 km/h (0 Bft)
02.04.2016 01:30 5,8 C 5,7 C 93 % 1017,3 hPa 0,0 mm 1,5 km/h (1 Bft) NO 45 0 min 4,8 C 4,5 km/h (1 Bft)
02.04.2016 01:35 5,8 C 5,7 C 93 % 1017,3 hPa 0,0 mm 2,7 km/h (1 Bft) O-NO 67 0 min 4,8 C 7,7 km/h (2 Bft)
02.04.2016 01:40 5,8 C 5,7 C 93 % 1017,3 hPa 0,0 mm 2,1 km/h (1 Bft) N-NO 22 0 min 4,8 C 0,0 km/h (0 Bft)
02.04.2016 01:45 5,8 C 5,7 C 93 % 1017,3 hPa 0,0 mm 2,7 km/h (1 Bft) N-NO 22 0 min 4,8 C 4,2 km/h (1 Bft)
02.04.2016 01:50 5,8 C 5,7 C 93 % 1017,4 hPa 0,0 mm 3,6 km/h (1 Bft) NO 45 0 min 4,8 C 3,6 km/h (1 Bft)
02.04.2016 01:55 5,8 C 5,7 C 93 % 1017,4 hPa 0,0 mm 4,2 km/h (1 Bft) W-SW 247 0 min 4,8 C 3,9 km/h (1 Bft)
02.04.2016 02:00 5,8 C 5,7 C 93 % 1017,4 hPa 0,0 mm 3,6 km/h (1 Bft) N-NO 22 0 min 4,8 C 5,1 km/h (1 Bft)
02.04.2016 02:05 5,8 C 5,7 C 93 % 1017,4 hPa 0,0 mm 3,0 km/h (1 Bft) O-NO 67 0 min 4,8 C 4,5 km/h (1 Bft)
02.04.2016 02:10 5,8 C 5,7 C 93 % 1017,4 hPa 0,0 mm 3,3 km/h (1 Bft) NO 45 0 min 4,8 C 0,0 km/h (0 Bft)
02.04.2016 02:15 5,8 C 5,8 C 93 % 1017,4 hPa 0,0 mm 3,6 km/h (1 Bft) NO 45 0 min 4,8 C 6,6 km/h (2 Bft)
02.04.2016 02:20 5,8 C 5,8 C 93 % 1017,4 hPa 0,0 mm 3,3 km/h (1 Bft) O-NO 67 0 min 4,8 C 0,0 km/h (0 Bft)
02.04.2016 02:25 5,8 C 5,8 C 93 % 1017,4 hPa 0,0 mm 3,0 km/h (1 Bft) NO 45 0 min 4,8 C 4,2 km/h (1 Bft)
02.04.2016 02:30 5,8 C 5,8 C 93 % 1017,6 hPa 0,0 mm 3,6 km/h (1 Bft) O-NO 67 0 min 4,8 C 8,0 km/h (2 Bft)
02.04.2016 02:35 5,8 C 5,8 C 93 % 1017,6 hPa 0,0 mm 4,8 km/h (1 Bft) NO 45 0 min 4,8 C 4,8 km/h (1 Bft)
02.04.2016 02:40 5,8 C 5,8 C 93 % 1017,6 hPa 0,0 mm 4,8 km/h (1 Bft) N-NO 22 0 min 4,8 C 6,0 km/h (2 Bft)
02.04.2016 02:45 5,8 C 5,8 C 93 % 1017,6 hPa 0,0 mm 4,2 km/h (1 Bft) NO 45 0 min 4,8 C 7,2 km/h (2 Bft)
02.04.2016 02:50 5,8 C 5,8 C 93 % 1017,6 hPa 0,0 mm 4,5 km/h (1 Bft) O-NO 67 0 min 4,8 C 4,5 km/h (1 Bft)
02.04.2016 02:55 5,8 C 5,8 C 93 % 1017,6 hPa 0,0 mm 4,2 km/h (1 Bft) N-NO 22 0 min 4,8 C 3,6 km/h (1 Bft)
02.04.2016 03:00 5,8 C 5,8 C 93 % 1017,6 hPa 0,0 mm 2,7 km/h (1 Bft) N-NO 22 0 min 4,8 C 7,7 km/h (2 Bft)
02.04.2016 03:03 5,8 C 5,8 C 93 % 1017,6 hPa 0,0 mm 3,0 km/h (1 Bft) O-SO 112 0 min 4,8 C 0,0 km/h (0 Bft)
02.04.2016 03:05 5,8 C 5,8 C 93 % 1017,6 hPa 0,0 mm 3,0 km/h (1 Bft) O-SO 112 0 min 4,8 C 0,0 km/h (0 Bft)
02.04.2016 03:10 5,8 C 5,8 C 93 % 1017,9 hPa 0,0 mm 3,3 km/h (1 Bft) SO 135 0 min 4,8 C 0,0 km/h (0 Bft)
02.04.2016 03:15 5,8 C 5,8 C 93 % 1017,9 hPa 0,0 mm 1,5 km/h (1 Bft) NO 45 0 min 4,8 C 0,0 km/h (0 Bft)
02.04.2016 03:20 5,8 C 5,8 C 93 % 1017,9 hPa 0,0 mm 1,5 km/h (1 Bft) NO 45 0 min 4,8 C 5,4 km/h (1 Bft)
02.04.2016 03:25 5,8 C 5,8 C 93 % 1017,9 hPa 0,0 mm 0,9 km/h (0 Bft) N-NO 22 0 min 4,8 C 0,0 km/h (0 Bft)
02.04.2016 03:30 5,8 C 5,7 C 93 % 1017,4 hPa 0,0 mm 0,9 km/h (0 Bft) O-NO 67 0 min 4,8 C 6,0 km/h (2 Bft)
02.04.2016 03:35 5,7 C 5,7 C 93 % 1017,4 hPa 0,0 mm 1,2 km/h (1 Bft) NO 45 0 min 4,7 C 0,0 km/h (0 Bft)
02.04.2016 03:40 5,7 C 5,7 C 93 % 1017,4 hPa 0,0 mm 2,1 km/h (1 Bft) N-NO 22 0 min 4,7 C 3,0 km/h (1 Bft)
02.04.2016 03:45 5,7 C 5,7 C 93 % 1017,4 hPa 0,0 mm 2,4 km/h (1 Bft) N-NO 22 0 min 4,7 C 0,0 km/h (0 Bft)
02.04.2016 03:50 5,7 C 5,7 C 93 % 1017,0 hPa 0,0 mm 3,0 km/h (1 Bft) NO 45 0 min 4,7 C 6,3 km/h (2 Bft)
02.04.2016 03:55 5,7 C 5,6 C 93 % 1017,0 hPa 0,0 mm 3,6 km/h (1 Bft) NO 45 0 min 4,7 C 5,4 km/h (1 Bft)
02.04.2016 04:00 5,7 C 5,6 C 93 % 1017,0 hPa 0,0 mm 3,9 km/h (1 Bft) O-NO 67 0 min 4,7 C 4,2 km/h (1 Bft)
02.04.2016 04:05 5,7 C 5,6 C 93 % 1017,0 hPa 0,0 mm 1,5 km/h (1 Bft) NO 45 0 min 4,7 C 0,0 km/h (0 Bft)
02.04.2016 04:10 5,7 C 5,6 C 93 % 1016,8 hPa 0,0 mm 0,6 km/h (0 Bft) NW 315 0 min 4,7 C 0,0 km/h (0 Bft)
02.04.2016 04:15 5,7 C 5,6 C 93 % 1016,8 hPa 0,0 mm 1,2 km/h (1 Bft) O-NO 67 0 min 4,7 C 0,0 km/h (0 Bft)
02.04.2016 04:20 5,7 C 5,6 C 93 % 1016,8 hPa 0,0 mm 1,5 km/h (1 Bft) NO 45 0 min 4,7 C 3,3 km/h (1 Bft)
02.04.2016 04:25 5,7 C 5,6 C 93 % 1016,8 hPa 0,0 mm 0,9 km/h (0 Bft) O-NO 67 0 min 4,7 C 0,0 km/h (0 Bft)
02.04.2016 04:30 5,7 C 5,6 C 93 % 1016,9 hPa 0,0 mm 1,2 km/h (1 Bft) O-NO 67 0 min 4,7 C 5,4 km/h (1 Bft)
02.04.2016 04:35 5,7 C 5,6 C 93 % 1016,9 hPa 0,0 mm 1,2 km/h (1 Bft) O-NO 67 0 min 4,7 C 3,3 km/h (1 Bft)
02.04.2016 04:40 5,7 C 5,6 C 93 % 1016,9 hPa 0,0 mm 1,5 km/h (1 Bft) NO 45 0 min 4,7 C 0,0 km/h (0 Bft)
02.04.2016 04:45 5,7 C 5,6 C 93 % 1016,9 hPa 0,0 mm 2,1 km/h (1 Bft) O-NO 67 0 min 4,7 C 7,7 km/h (2 Bft)
02.04.2016 04:50 5,7 C 5,6 C 93 % 1016,8 hPa 0,0 mm 2,1 km/h (1 Bft) NO 45 0 min 4,7 C 3,6 km/h (1 Bft)
02.04.2016 04:55 5,7 C 5,6 C 93 % 1016,8 hPa 0,0 mm 2,1 km/h (1 Bft) O-NO 67 0 min 4,7 C 7,2 km/h (2 Bft)
02.04.2016 05:00 5,7 C 5,6 C 93 % 1016,8 hPa 0,0 mm 2,7 km/h (1 Bft) O 90 0 min 4,7 C 0,0 km/h (0 Bft)
02.04.2016 05:05 5,7 C 5,6 C 93 % 1016,8 hPa 0,0 mm 5,7 km/h (1 Bft) NO 45 0 min 4,7 C 5,4 km/h (1 Bft)
02.04.2016 05:10 5,7 C 5,6 C 93 % 1016,7 hPa 0,0 mm 6,6 km/h (2 Bft) NO 45 0 min 4,7 C 11,3 km/h (2 Bft)
02.04.2016 05:15 5,6 C 5,5 C 93 % 1016,7 hPa 0,0 mm 6,3 km/h (2 Bft) N-NO 22 0 min 4,6 C 3,9 km/h (1 Bft)
02.04.2016 05:20 5,6 C 5,5 C 93 % 1016,7 hPa 0,0 mm 5,1 km/h (1 Bft) NO 45 0 min 4,6 C 3,0 km/h (1 Bft)
02.04.2016 05:25 5,6 C 5,5 C 93 % 1016,7 hPa 0,0 mm 4,5 km/h (1 Bft) NO 45 0 min 4,6 C 6,9 km/h (2 Bft)
02.04.2016 05:30 5,6 C 5,5 C 93 % 1016,4 hPa 0,0 mm 4,8 km/h (1 Bft) S-SO 157 0 min 4,6 C 7,5 km/h (2 Bft)
02.04.2016 05:35 5,6 C 5,5 C 93 % 1016,4 hPa 0,0 mm 4,2 km/h (1 Bft) W 270 0 min 4,6 C 5,4 km/h (1 Bft)
02.04.2016 05:40 5,5 C 5,5 C 93 % 1016,4 hPa 0,0 mm 5,1 km/h (1 Bft) O-NO 67 0 min 4,5 C 8,3 km/h (2 Bft)
02.04.2016 05:45 5,5 C 5,5 C 93 % 1016,4 hPa 0,0 mm 5,1 km/h (1 Bft) NO 45 0 min 4,5 C 6,6 km/h (2 Bft)
02.04.2016 05:50 5,5 C 5,4 C 93 % 1016,4 hPa 0,0 mm 6,3 km/h (2 Bft) NO 45 0 min 4,5 C 10,4 km/h (2 Bft)
02.04.2016 05:55 5,5 C 5,4 C 93 % 1016,4 hPa 0,0 mm 5,7 km/h (1 Bft) NO 45 0 min 4,5 C 6,3 km/h (2 Bft)
02.04.2016 06:00 5,5 C 5,4 C 93 % 1016,4 hPa 0,0 mm 4,5 km/h (1 Bft) NO 45 0 min 4,5 C 5,7 km/h (1 Bft)
02.04.2016 06:03 5,4 C 5,4 C 93 % 1016,4 hPa 0,0 mm 4,5 km/h (1 Bft) N 360 0 min 4,4 C 3,9 km/h (1 Bft)
02.04.2016 06:06 5,4 C 5,4 C 93 % 1016,4 hPa 0,0 mm 4,5 km/h (1 Bft) N 360 0 min 4,4 C 3,9 km/h (1 Bft)
02.04.2016 06:10 5,4 C 5,4 C 93 % 1016,5 hPa 0,0 mm 4,8 km/h (1 Bft) NO 45 0 min 4,4 C 7,7 km/h (2 Bft)
02.04.2016 06:15 5,4 C 5,4 C 93 % 1016,5 hPa 0,0 mm 5,1 km/h (1 Bft) NO 45 0 min 4,4 C 7,2 km/h (2 Bft)
02.04.2016 06:20 5,4 C 5,4 C 93 % 1016,5 hPa 0,0 mm 4,8 km/h (1 Bft) O-NO 67 0 min 4,4 C 4,5 km/h (1 Bft)
02.04.2016 06:25 5,4 C 5,4 C 88 % 1016,5 hPa 0,0 mm 3,9 km/h (1 Bft) O-NO 67 0 min 3,6 C 3,3 km/h (1 Bft)
02.04.2016 06:30 5,4 C 5,4 C 93 % 1016,6 hPa 0,0 mm 2,7 km/h (1 Bft) O-NO 67 0 min 4,4 C 0,0 km/h (0 Bft)
02.04.2016 06:35 5,4 C 5,4 C 88 % 1016,6 hPa 0,0 mm 3,0 km/h (1 Bft) NO 45 0 min 3,6 C 0,0 km/h (0 Bft)
02.04.2016 06:40 5,5 C 5,4 C 93 % 1016,6 hPa 0,0 mm 1,8 km/h (1 Bft) O-NO 67 0 min 4,5 C 0,0 km/h (0 Bft)
02.04.2016 06:45 5,5 C 5,5 C 93 % 1016,6 hPa 0,0 mm 0,9 km/h (0 Bft) N 360 0 min 4,5 C 0,0 km/h (0 Bft)
02.04.2016 06:50 5,5 C 5,5 C 93 % 1016,4 hPa 0,0 mm 0,9 km/h (0 Bft) NO 45 0 min 4,5 C 0,0 km/h (0 Bft)
02.04.2016 06:55 5,5 C 5,5 C 93 % 1016,4 hPa 0,0 mm 3,0 km/h (1 Bft) O-NO 67 0 min 4,5 C 6,3 km/h (2 Bft)
02.04.2016 07:00 5,5 C 5,5 C 93 % 1016,4 hPa 0,0 mm 3,3 km/h (1 Bft) NO 45 0 min 4,5 C 0,0 km/h (0 Bft)
02.04.2016 07:05 5,5 C 5,5 C 93 % 1016,4 hPa 0,0 mm 3,9 km/h (1 Bft) O-SO 112 0 min 4,5 C 4,8 km/h (1 Bft)
02.04.2016 07:10 5,5 C 5,5 C 93 % 1016,4 hPa 0,0 mm 4,2 km/h (1 Bft) O-NO 67 0 min 4,5 C 3,0 km/h (1 Bft)
02.04.2016 07:15 5,4 C 5,4 C 93 % 1016,4 hPa 0,0 mm 2,4 km/h (1 Bft) O-SO 112 0 min 4,4 C 0,0 km/h (0 Bft)
02.04.2016 07:20 5,4 C 5,4 C 93 % 1016,4 hPa 0,0 mm 0,9 km/h (0 Bft) O-NO 67 0 min 4,4 C 0,0 km/h (0 Bft)
02.04.2016 07:25 5,5 C 5,5 C 93 % 1016,4 hPa 0,0 mm 0,9 km/h (0 Bft) O-NO 67 0 min 4,5 C 0,0 km/h (0 Bft)
02.04.2016 07:30 5,5 C 5,5 C 88 % 1016,3 hPa 0,0 mm 1,8 km/h (1 Bft) O-NO 67 0 min 3,7 C 3,6 km/h (1 Bft)
02.04.2016 07:35 5,6 C 5,6 C 88 % 1016,3 hPa 0,0 mm 1,8 km/h (1 Bft) N-NO 22 0 min 3,8 C 3,3 km/h (1 Bft)
02.04.2016 07:40 5,6 C 5,7 C 88 % 1016,3 hPa 0,0 mm 2,4 km/h (1 Bft) N-NO 22 0 min 3,8 C 5,4 km/h (1 Bft)
02.04.2016 07:45 5,6 C 5,8 C 88 % 1016,3 hPa 0,0 mm 3,6 km/h (1 Bft) N-NO 22 0 min 3,8 C 5,1 km/h (1 Bft)
02.04.2016 07:50 5,6 C 5,8 C 88 % 1016,4 hPa 0,0 mm 4,5 km/h (1 Bft) NO 45 0 min 3,8 C 3,9 km/h (1 Bft)
02.04.2016 07:55 5,6 C 5,9 C 88 % 1016,4 hPa 0,0 mm 3,6 km/h (1 Bft) NO 45 0 min 3,8 C 0,0 km/h (0 Bft)
02.04.2016 08:00 5,7 C 5,9 C 88 % 1016,4 hPa 0,0 mm 1,5 km/h (1 Bft) NO 45 0 min 3,9 C 0,0 km/h (0 Bft)
02.04.2016 08:05 5,7 C 6,0 C 88 % 1016,4 hPa 0,0 mm 1,8 km/h (1 Bft) O-NO 67 0 min 3,9 C 5,4 km/h (1 Bft)
02.04.2016 08:10 5,7 C 6,0 C 88 % 1016,3 hPa 0,0 mm 3,3 km/h (1 Bft) NO 45 0 min 3,9 C 0,0 km/h (0 Bft)
02.04.2016 08:15 5,8 C 6,1 C 88 % 1016,3 hPa 0,0 mm 2,1 km/h (1 Bft) O-NO 67 0 min 4,0 C 5,1 km/h (1 Bft)
02.04.2016 08:20 5,7 C 6,1 C 88 % 1016,3 hPa 0,0 mm 0,9 km/h (0 Bft) O 90 0 min 3,9 C 0,0 km/h (0 Bft)
02.04.2016 08:25 5,8 C 6,2 C 88 % 1016,3 hPa 0,0 mm 1,8 km/h (1 Bft) O-NO 67 0 min 4,0 C 4,2 km/h (1 Bft)
02.04.2016 08:30 5,8 C 6,2 C 88 % 1016,2 hPa 0,0 mm 3,3 km/h (1 Bft) NO 45 0 min 4,0 C 8,9 km/h (2 Bft)
02.04.2016 08:35 5,9 C 6,3 C 88 % 1016,2 hPa 0,0 mm 4,5 km/h (1 Bft) N-NO 22 0 min 4,1 C 6,6 km/h (2 Bft)
02.04.2016 08:40 5,9 C 6,3 C 88 % 1016,2 hPa 0,0 mm 4,8 km/h (1 Bft) NO 45 0 min 4,1 C 9,2 km/h (2 Bft)
02.04.2016 08:45 5,9 C 6,3 C 88 % 1016,2 hPa 0,0 mm 5,4 km/h (1 Bft) O-NO 67 0 min 4,1 C 3,0 km/h (1 Bft)
02.04.2016 08:50 5,9 C 6,3 C 88 % 1016,5 hPa 0,0 mm 6,0 km/h (2 Bft) N-NO 22 0 min 4,1 C 7,5 km/h (2 Bft)
02.04.2016 08:55 6,0 C 6,3 C 88 % 1016,5 hPa 0,0 mm 5,4 km/h (1 Bft) N-NO 22 0 min 4,2 C 11,6 km/h (2 Bft)
02.04.2016 09:00 6,0 C 6,3 C 88 % 1016,5 hPa 0,0 mm 5,7 km/h (1 Bft) O-NO 67 0 min 4,2 C 3,0 km/h (1 Bft)
02.04.2016 09:05 6,0 C 6,2 C 88 % 1016,5 hPa 0,0 mm 7,2 km/h (2 Bft) NO 45 0 min 4,2 C 8,3 km/h (2 Bft)
02.04.2016 09:07 6,0 C 6,2 C 88 % 1016,5 hPa 0,0 mm 7,2 km/h (2 Bft) NO 45 0 min 4,2 C 8,3 km/h (2 Bft)
02.04.2016 09:10 6,0 C 6,4 C 88 % 1016,5 hPa 0,0 mm 6,6 km/h (2 Bft) S-SO 157 0 min 4,2 C 5,1 km/h (1 Bft)
02.04.2016 09:15 6,0 C 6,6 C 88 % 1016,5 hPa 0,0 mm 6,3 km/h (2 Bft) NO 45 0 min 4,2 C 14,6 km/h (3 Bft)
02.04.2016 09:20 5,9 C 6,5 C 88 % 1016,5 hPa 0,0 mm 6,6 km/h (2 Bft) NO 45 0 min 4,1 C 12,5 km/h (3 Bft)
02.04.2016 09:25 6,0 C 6,4 C 88 % 1016,5 hPa 0,0 mm 8,3 km/h (2 Bft) NO 45 0 min 4,2 C 10,1 km/h (2 Bft)
02.04.2016 09:30 6,0 C 6,5 C 88 % 1016,4 hPa 0,0 mm 8,3 km/h (2 Bft) N-NO 22 0 min 4,2 C 17,3 km/h (3 Bft)
02.04.2016 09:35 6,2 C 6,5 C 88 % 1016,4 hPa 0,0 mm 8,9 km/h (2 Bft) N-NO 22 0 min 4,4 C 17,9 km/h (3 Bft)
02.04.2016 09:40 6,2 C 6,6 C 88 % 1016,4 hPa 0,0 mm 9,5 km/h (2 Bft) NO 45 0 min 4,4 C 15,5 km/h (3 Bft)
02.04.2016 09:45 6,3 C 6,9 C 88 % 1016,4 hPa 0,0 mm 7,7 km/h (2 Bft) N-NO 22 0 min 4,5 C 7,5 km/h (2 Bft)
02.04.2016 09:50 6,4 C 7,2 C 88 % 1016,5 hPa 0,0 mm 6,6 km/h (2 Bft) O-NO 67 0 min 4,6 C 4,5 km/h (1 Bft)
02.04.2016 09:55 6,3 C 7,0 C 88 % 1016,5 hPa 0,0 mm 6,9 km/h (2 Bft) NO 45 0 min 4,5 C 4,2 km/h (1 Bft)
02.04.2016 10:00 6,3 C 6,9 C 88 % 1016,5 hPa 0,0 mm 7,7 km/h (2 Bft) O-NO 67 0 min 4,5 C 5,1 km/h (1 Bft)
02.04.2016 10:05 6,5 C 7,2 C 88 % 1016,5 hPa 0,0 mm 6,6 km/h (2 Bft) NO 45 0 min 4,7 C 8,3 km/h (2 Bft)
02.04.2016 10:10 6,5 C 7,5 C 88 % 1016,4 hPa 0,0 mm 6,0 km/h (2 Bft) N-NO 22 0 min 4,7 C 13,4 km/h (3 Bft)
02.04.2016 10:15 6,5 C 7,2 C 88 % 1016,4 hPa 0,0 mm 8,0 km/h (2 Bft) O-SO 112 0 min 4,7 C 8,0 km/h (2 Bft)
02.04.2016 10:20 6,6 C 7,3 C 88 % 1016,4 hPa 0,0 mm 8,6 km/h (2 Bft) NO 45 0 min 4,8 C 11,6 km/h (2 Bft)
02.04.2016 10:25 6,6 C 7,7 C 88 % 1016,4 hPa 0,0 mm 6,9 km/h (2 Bft) O-NO 67 0 min 4,8 C 4,2 km/h (1 Bft)
02.04.2016 10:30 6,7 C 7,7 C 88 % 1016,6 hPa 0,0 mm 6,9 km/h (2 Bft) O-NO 67 0 min 4,9 C 7,2 km/h (2 Bft)
02.04.2016 10:35 6,7 C 7,7 C 88 % 1016,6 hPa 0,0 mm 7,2 km/h (2 Bft) N-NO 22 0 min 4,9 C 10,7 km/h (2 Bft)
02.04.2016 10:40 6,7 C 7,4 C 88 % 1016,6 hPa 0,0 mm 8,0 km/h (2 Bft) O-NO 67 0 min 4,9 C 9,2 km/h (2 Bft)
02.04.2016 10:45 6,7 C 7,8 C 88 % 1016,6 hPa 0,0 mm 6,9 km/h (2 Bft) O-NO 67 0 min 4,9 C 5,7 km/h (1 Bft)
02.04.2016 10:50 6,8 C 8,1 C 88 % 1016,7 hPa 0,0 mm 6,9 km/h (2 Bft) O-NO 67 0 min 5,0 C 12,2 km/h (2 Bft)
02.04.2016 10:55 6,8 C 8,1 C 88 % 1016,7 hPa 0,0 mm 5,7 km/h (1 Bft) N-NO 22 0 min 5,0 C 6,3 km/h (2 Bft)
02.04.2016 11:00 6,8 C 8,1 C 88 % 1016,7 hPa 0,0 mm 5,7 km/h (1 Bft) O-NO 67 0 min 5,0 C 5,4 km/h (1 Bft)
02.04.2016 11:05 6,9 C 8,2 C 88 % 1016,7 hPa 0,0 mm 6,0 km/h (2 Bft) O-NO 67 0 min 5,1 C 7,7 km/h (2 Bft)
02.04.2016 11:10 6,9 C 8,3 C 88 % 1016,8 hPa 0,0 mm 4,8 km/h (1 Bft) NO 45 0 min 5,1 C 3,9 km/h (1 Bft)
02.04.2016 11:15 6,9 C 8,4 C 88 % 1016,8 hPa 0,0 mm 5,1 km/h (1 Bft) NO 45 0 min 5,1 C 5,4 km/h (1 Bft)
02.04.2016 11:20 7,0 C 8,5 C 88 % 1016,8 hPa 0,0 mm 5,7 km/h (1 Bft) NO 45 0 min 5,2 C 11,3 km/h (2 Bft)
02.04.2016 11:25 7,1 C 9,0 C 88 % 1016,8 hPa 0,0 mm 5,4 km/h (1 Bft) O-NO 67 0 min 5,2 C 4,8 km/h (1 Bft)
02.04.2016 11:30 7,2 C 9,2 C 88 % 1016,8 hPa 0,0 mm 6,9 km/h (2 Bft) O-NO 67 0 min 5,3 C 6,9 km/h (2 Bft)
02.04.2016 11:35 7,2 C 9,3 C 88 % 1016,8 hPa 0,0 mm 6,0 km/h (2 Bft) W 270 0 min 5,3 C 0,0 km/h (0 Bft)
02.04.2016 11:40 7,3 C 9,3 C 88 % 1016,8 hPa 0,0 mm 6,0 km/h (2 Bft) NO 45 0 min 5,4 C 11,6 km/h (2 Bft)
02.04.2016 11:45 7,3 C 9,3 C 88 % 1016,8 hPa 0,0 mm 5,4 km/h (1 Bft) O-NO 67 0 min 5,4 C 6,9 km/h (2 Bft)
02.04.2016 11:50 7,4 C 9,4 C 88 % 1016,8 hPa 0,0 mm 4,2 km/h (1 Bft) NO 45 0 min 5,5 C 5,1 km/h (1 Bft)
02.04.2016 11:55 7,5 C 9,6 C 88 % 1016,8 hPa 0,0 mm 4,8 km/h (1 Bft) N-NO 22 0 min 5,6 C 7,5 km/h (2 Bft)
02.04.2016 12:00 7,6 C 9,6 C 88 % 1016,8 hPa 0,0 mm 5,1 km/h (1 Bft) O-NO 67 0 min 5,7 C 6,6 km/h (2 Bft)
02.04.2016 12:05 7,7 C 9,7 C 88 % 1016,8 hPa 0,0 mm 5,1 km/h (1 Bft) O-SO 112 0 min 5,8 C 6,9 km/h (2 Bft)
02.04.2016 12:08 7,7 C 9,7 C 88 % 1016,8 hPa 0,0 mm 5,1 km/h (1 Bft) O-SO 112 0 min 5,8 C 6,9 km/h (2 Bft)
02.04.2016 12:10 7,6 C 9,7 C 88 % 1016,7 hPa 0,0 mm 6,6 km/h (2 Bft) O-NO 67 0 min 5,7 C 5,7 km/h (1 Bft)
02.04.2016 12:15 7,7 C 9,8 C 88 % 1016,7 hPa 0,0 mm 7,5 km/h (2 Bft) NO 45 0 min 5,8 C 5,1 km/h (1 Bft)
02.04.2016 12:20 7,8 C 10,1 C 88 % 1016,7 hPa 0,0 mm 6,3 km/h (2 Bft) O-NO 67 0 min 5,9 C 5,7 km/h (1 Bft)
02.04.2016 12:25 8,2 C 11,1 C 88 % 1016,7 hPa 0,0 mm 6,6 km/h (2 Bft) NO 45 0 min 6,3 C 14,3 km/h (3 Bft)
02.04.2016 12:30 8,2 C 11,3 C 88 % 1016,8 hPa 0,0 mm 7,5 km/h (2 Bft) O-NO 67 0 min 6,3 C 8,0 km/h (2 Bft)
02.04.2016 12:35 8,2 C 11,2 C 88 % 1016,8 hPa 0,0 mm 8,9 km/h (2 Bft) NO 45 0 min 6,3 C 10,7 km/h (2 Bft)
02.04.2016 12:40 8,3 C 11,0 C 88 % 1016,8 hPa 0,0 mm 8,0 km/h (2 Bft) O-SO 112 0 min 6,4 C 4,2 km/h (1 Bft)
02.04.2016 12:45 8,7 C 11,2 C 88 % 1016,8 hPa 0,0 mm 5,4 km/h (1 Bft) O-SO 112 0 min 6,8 C 6,0 km/h (2 Bft)
02.04.2016 12:50 8,8 C 11,3 C 87 % 1016,9 hPa 0,0 mm 3,6 km/h (1 Bft) NO 45 0 min 6,8 C 4,2 km/h (1 Bft)
02.04.2016 12:55 9,0 C 11,5 C 87 % 1016,9 hPa 0,0 mm 4,5 km/h (1 Bft) N-NO 22 0 min 7,0 C 9,2 km/h (2 Bft)
02.04.2016 13:00 9,0 C 11,5 C 87 % 1016,9 hPa 0,0 mm 5,4 km/h (1 Bft) N-NO 22 0 min 7,0 C 7,2 km/h (2 Bft)
02.04.2016 13:05 9,3 C 11,7 C 87 % 1016,9 hPa 0,0 mm 6,6 km/h (2 Bft) NO 45 0 min 7,2 C 8,3 km/h (2 Bft)
02.04.2016 13:10 9,3 C 11,8 C 87 % 1016,7 hPa 0,0 mm 6,0 km/h (2 Bft) NO 45 0 min 7,2 C 5,1 km/h (1 Bft)
02.04.2016 13:15 9,5 C 12,2 C 86 % 1016,7 hPa 0,0 mm 6,3 km/h (2 Bft) NO 45 0 min 7,3 C 10,7 km/h (2 Bft)
02.04.2016 13:20 9,6 C 12,3 C 86 % 1016,7 hPa 0,0 mm 6,3 km/h (2 Bft) O-NO 67 0 min 7,4 C 10,1 km/h (2 Bft)
02.04.2016 13:25 9,9 C 12,7 C 86 % 1016,7 hPa 0,0 mm 6,9 km/h (2 Bft) NO 45 0 min 7,7 C 6,6 km/h (2 Bft)
02.04.2016 13:30 10,2 C 13,2 C 86 % 1016,6 hPa 0,0 mm 8,0 km/h (2 Bft) NO 45 0 min 8,0 C 12,8 km/h (3 Bft)
02.04.2016 13:35 10,5 C 13,9 C 85 % 1016,6 hPa 0,0 mm 9,2 km/h (2 Bft) O-SO 112 0 min 8,1 C 16,4 km/h (3 Bft)
02.04.2016 13:40 10,7 C 14,4 C 85 % 1016,6 hPa 0,0 mm 9,2 km/h (2 Bft) N 360 0 min 8,3 C 10,1 km/h (2 Bft)
02.04.2016 13:45 10,9 C 14,7 C 84 % 1016,6 hPa 0,0 mm 9,2 km/h (2 Bft) O-NO 67 5 min 8,3 C 7,7 km/h (2 Bft)
02.04.2016 13:50 11,1 C 14,8 C 84 % 1016,8 hPa 0,0 mm 8,3 km/h (2 Bft) N-NO 22 0 min 8,5 C 11,3 km/h (2 Bft)
02.04.2016 13:55 11,3 C 15,2 C 83 % 1016,8 hPa 0,0 mm 9,2 km/h (2 Bft) O-NO 67 0 min 8,5 C 11,6 km/h (2 Bft)
02.04.2016 14:00 11,6 C 15,4 C 83 % 1016,8 hPa 0,0 mm 9,8 km/h (2 Bft) NO 45 0 min 8,8 C 9,5 km/h (2 Bft)
02.04.2016 14:05 12,1 C 16,2 C 82 % 1016,8 hPa 0,0 mm 10,7 km/h (2 Bft) O-NO 67 0 min 9,1 C 18,8 km/h (3 Bft)
02.04.2016 14:10 12,2 C 16,2 C 81 % 1016,6 hPa 0,0 mm 11,6 km/h (2 Bft) NO 45 5 min 9,0 C 17,9 km/h (3 Bft)
02.04.2016 14:15 12,3 C 16,1 C 79 % 1016,6 hPa 0,0 mm 10,1 km/h (2 Bft) NO 45 0 min 8,8 C 19,4 km/h (3 Bft)
02.04.2016 14:20 12,4 C 16,2 C 79 % 1016,6 hPa 0,0 mm 8,3 km/h (2 Bft) O-NO 67 5 min 8,9 C 11,3 km/h (2 Bft)
02.04.2016 14:25 12,5 C 16,1 C 78 % 1016,6 hPa 0,0 mm 8,3 km/h (2 Bft) N-NO 22 5 min 8,8 C 6,0 km/h (2 Bft)
02.04.2016 14:30 12,9 C 16,4 C 78 % 1016,8 hPa 0,0 mm 8,3 km/h (2 Bft) NO 45 0 min 9,2 C 9,2 km/h (2 Bft)
02.04.2016 14:35 13,2 C 17,0 C 76 % 1016,8 hPa 0,0 mm 8,0 km/h (2 Bft) N-NO 22 0 min 9,1 C 6,3 km/h (2 Bft)
02.04.2016 14:40 13,6 C 18,1 C 76 % 1016,8 hPa 0,0 mm 8,6 km/h (2 Bft) SO 135 5 min 9,4 C 13,1 km/h (3 Bft)
02.04.2016 14:45 14,1 C 19,0 C 74 % 1016,8 hPa 0,0 mm 10,1 km/h (2 Bft) O-NO 67 5 min 9,5 C 22,1 km/h (4 Bft)
02.04.2016 14:50 14,1 C 18,9 C 74 % 1016,4 hPa 0,0 mm 12,5 km/h (3 Bft) NO 45 5 min 9,5 C 17,9 km/h (3 Bft)
02.04.2016 14:55 14,5 C 19,1 C 72 % 1016,4 hPa 0,0 mm 13,1 km/h (3 Bft) O-NO 67 5 min 9,5 C 22,7 km/h (4 Bft)
02.04.2016 15:00 14,8 C 19,3 C 72 % 1016,4 hPa 0,0 mm 11,9 km/h (2 Bft) NO 45 5 min 9,8 C 11,6 km/h (2 Bft)
02.04.2016 15:05 15,1 C 20,0 C 71 % 1016,4 hPa 0,0 mm 9,2 km/h (2 Bft) NO 45 5 min 9,9 C 14,6 km/h (3 Bft)
02.04.2016 15:08 15,3 C 20,2 C 70 % 1016,5 hPa 0,0 mm 9,2 km/h (2 Bft) NO 45 3 min 9,9 C 10,1 km/h (2 Bft)
02.04.2016 15:09 15,3 C 20,2 C 70 % 1016,5 hPa 0,0 mm 9,2 km/h (2 Bft) NO 45 1 min 9,9 C 10,1 km/h (2 Bft)
02.04.2016 15:10 15,3 C 20,2 C 70 % 1016,5 hPa 0,0 mm 9,2 km/h (2 Bft) NO 45 1 min 9,9 C 10,1 km/h (2 Bft)
02.04.2016 15:15 15,3 C 20,1 C 69 % 1016,5 hPa 0,0 mm 11,0 km/h (2 Bft) NO 45 5 min 9,6 C 14,0 km/h (3 Bft)
02.04.2016 15:20 15,2 C 19,8 C 69 % 1016,5 hPa 0,0 mm 10,7 km/h (2 Bft) O-NO 67 5 min 9,6 C 13,1 km/h (3 Bft)
02.04.2016 15:25 15,5 C 19,5 C 68 % 1016,5 hPa 0,0 mm 10,1 km/h (2 Bft) NO 45 5 min 9,6 C 16,4 km/h (3 Bft)
02.04.2016 15:30 15,6 C 19,3 C 68 % 1016,4 hPa 0,0 mm 10,7 km/h (2 Bft) O-NO 67 5 min 9,7 C 13,7 km/h (3 Bft)
02.04.2016 15:35 15,6 C 19,3 C 68 % 1016,4 hPa 0,0 mm 9,2 km/h (2 Bft) O-NO 67 5 min 9,7 C 23,5 km/h (4 Bft)
02.04.2016 15:40 15,5 C 18,7 C 67 % 1016,4 hPa 0,0 mm 11,6 km/h (2 Bft) N-NO 22 0 min 9,4 C 17,9 km/h (3 Bft)
02.04.2016 15:45 15,7 C 18,5 C 67 % 1016,4 hPa 0,0 mm 14,3 km/h (3 Bft) O-NO 67 0 min 9,6 C 24,7 km/h (4 Bft)
02.04.2016 15:50 15,8 C 19,0 C 67 % 1016,1 hPa 0,0 mm 13,1 km/h (3 Bft) O-NO 67 0 min 9,7 C 10,1 km/h (2 Bft)
02.04.2016 15:55 15,8 C 19,5 C 66 % 1016,1 hPa 0,0 mm 11,9 km/h (2 Bft) N-NO 22 5 min 9,5 C 13,1 km/h (3 Bft)
02.04.2016 16:00 15,9 C 19,5 C 66 % 1016,1 hPa 0,0 mm 11,9 km/h (2 Bft) NO 45 0 min 9,6 C 22,4 km/h (4 Bft)
02.04.2016 16:05 15,9 C 19,0 C 66 % 1016,1 hPa 0,0 mm 13,4 km/h (3 Bft) N-NW 337 0 min 9,6 C 25,3 km/h (4 Bft)
02.04.2016 16:10 16,0 C 18,8 C 65 % 1015,9 hPa 0,0 mm 13,4 km/h (3 Bft) N 360 0 min 9,4 C 11,9 km/h (2 Bft)
02.04.2016 16:15 15,8 C 18,4 C 66 % 1015,9 hPa 0,0 mm 12,5 km/h (3 Bft) NO 45 0 min 9,5 C 14,0 km/h (3 Bft)
02.04.2016 16:20 15,8 C 18,4 C 66 % 1015,9 hPa 0,0 mm 12,8 km/h (3 Bft) N-NO 22 0 min 9,5 C 15,5 km/h (3 Bft)
02.04.2016 16:25 16,0 C 18,8 C 65 % 1015,9 hPa 0,0 mm 14,9 km/h (3 Bft) N-NO 22 0 min 9,4 C 26,8 km/h (4 Bft)
02.04.2016 16:30 16,0 C 18,8 C 65 % 1015,6 hPa 0,0 mm 16,7 km/h (3 Bft) N-NO 22 0 min 9,4 C 12,2 km/h (2 Bft)
02.04.2016 16:35 15,7 C 17,8 C 66 % 1015,6 hPa 0,0 mm 13,7 km/h (3 Bft) N-NO 22 0 min 9,4 C 11,3 km/h (2 Bft)
02.04.2016 16:40 15,7 C 17,2 C 66 % 1015,6 hPa 0,0 mm 11,3 km/h (2 Bft) O-NO 67 0 min 9,4 C 9,5 km/h (2 Bft)
02.04.2016 16:45 15,5 C 16,9 C 66 % 1015,6 hPa 0,0 mm 9,5 km/h (2 Bft) O 90 0 min 9,2 C 17,9 km/h (3 Bft)
02.04.2016 16:50 15,7 C 17,3 C 66 % 1015,4 hPa 0,0 mm 8,6 km/h (2 Bft) O-NO 67 0 min 9,4 C 9,8 km/h (2 Bft)
02.04.2016 16:55 15,9 C 18,2 C 66 % 1015,4 hPa 0,0 mm 10,7 km/h (2 Bft) N-NO 22 0 min 9,6 C 12,5 km/h (3 Bft)
02.04.2016 17:00 15,8 C 18,3 C 66 % 1015,4 hPa 0,0 mm 12,2 km/h (2 Bft) O-NO 67 0 min 9,5 C 11,9 km/h (2 Bft)
02.04.2016 17:05 15,9 C 18,2 C 66 % 1015,4 hPa 0,0 mm 13,7 km/h (3 Bft) NO 45 0 min 9,6 C 18,2 km/h (3 Bft)
02.04.2016 17:10 15,8 C 18,0 C 66 % 1015,1 hPa 0,0 mm 13,7 km/h (3 Bft) O-NO 67 0 min 9,5 C 18,5 km/h (3 Bft)
02.04.2016 17:15 15,9 C 17,8 C 65 % 1015,1 hPa 0,0 mm 15,2 km/h (3 Bft) NO 45 0 min 9,3 C 28,6 km/h (4 Bft)
02.04.2016 17:20 15,8 C 17,7 C 65 % 1015,1 hPa 0,0 mm 14,9 km/h (3 Bft) N-NO 22 0 min 9,2 C 7,2 km/h (2 Bft)
02.04.2016 17:25 15,9 C 17,9 C 65 % 1015,1 hPa 0,0 mm 11,6 km/h (2 Bft) NO 45 0 min 9,3 C 11,3 km/h (2 Bft)
02.04.2016 17:30 16,0 C 18,1 C 64 % 1015,0 hPa 0,0 mm 10,4 km/h (2 Bft) O-NO 67 0 min 9,2 C 21,5 km/h (4 Bft)
02.04.2016 17:35 16,0 C 18,0 C 64 % 1015,0 hPa 0,0 mm 11,9 km/h (2 Bft) O-NO 67 0 min 9,2 C 15,8 km/h (3 Bft)
02.04.2016 17:40 16,0 C 18,0 C 64 % 1015,0 hPa 0,0 mm 12,5 km/h (3 Bft) N-NO 22 0 min 9,2 C 9,8 km/h (2 Bft)
02.04.2016 17:45 16,0 C 18,0 C 64 % 1015,0 hPa 0,0 mm 11,9 km/h (2 Bft) O-NO 67 0 min 9,2 C 17,6 km/h (3 Bft)
02.04.2016 17:50 16,0 C 17,8 C 64 % 1014,9 hPa 0,0 mm 11,9 km/h (2 Bft) O-NO 67 0 min 9,2 C 20,6 km/h (4 Bft)
02.04.2016 17:55 16,0 C 17,4 C 64 % 1014,9 hPa 0,0 mm 12,2 km/h (2 Bft) NO 45 0 min 9,2 C 17,3 km/h (3 Bft)
02.04.2016 18:00 16,1 C 17,5 C 65 % 1014,9 hPa 0,0 mm 10,4 km/h (2 Bft) NO 45 0 min 9,5 C 9,8 km/h (2 Bft)
02.04.2016 18:05 16,2 C 17,6 C 65 % 1014,9 hPa 0,0 mm 8,3 km/h (2 Bft) O-NO 67 0 min 9,6 C 9,8 km/h (2 Bft)
02.04.2016 18:08 16,1 C 17,6 C 65 % 1015,0 hPa 0,0 mm 8,9 km/h (2 Bft) O-NO 67 0 min 9,5 C 16,1 km/h (3 Bft)
02.04.2016 18:10 16,1 C 17,6 C 65 % 1015,0 hPa 0,0 mm 8,9 km/h (2 Bft) O-NO 67 0 min 9,5 C 16,1 km/h (3 Bft)
02.04.2016 18:15 16,0 C 17,3 C 65 % 1015,0 hPa 0,0 mm 9,8 km/h (2 Bft) NO 45 0 min 9,4 C 12,8 km/h (3 Bft)
02.04.2016 18:20 15,9 C 17,0 C 66 % 1015,0 hPa 0,0 mm 9,5 km/h (2 Bft) O-SO 112 0 min 9,6 C 6,6 km/h (2 Bft)
02.04.2016 18:25 15,8 C 16,8 C 66 % 1015,0 hPa 0,0 mm 6,0 km/h (2 Bft) N-NO 22 0 min 9,5 C 9,2 km/h (2 Bft)
02.04.2016 18:30 15,8 C 16,6 C 67 % 1014,8 hPa 0,0 mm 6,0 km/h (2 Bft) NO 45 0 min 9,7 C 17,3 km/h (3 Bft)
02.04.2016 18:35 15,7 C 16,4 C 67 % 1014,8 hPa 0,0 mm 8,6 km/h (2 Bft) NO 45 0 min 9,6 C 0,0 km/h (0 Bft)
02.04.2016 18:40 15,7 C 16,3 C 67 % 1014,8 hPa 0,0 mm 7,5 km/h (2 Bft) O-SO 112 0 min 9,6 C 5,4 km/h (1 Bft)
02.04.2016 18:45 15,6 C 16,1 C 67 % 1014,8 hPa 0,0 mm 7,7 km/h (2 Bft) O-SO 112 0 min 9,5 C 0,0 km/h (0 Bft)
02.04.2016 18:50 15,3 C 15,9 C 67 % 1014,8 hPa 0,0 mm 6,0 km/h (2 Bft) O-NO 67 0 min 9,2 C 3,0 km/h (1 Bft)
02.04.2016 18:55 15,0 C 15,6 C 68 % 1014,8 hPa 0,0 mm 1,8 km/h (1 Bft) O-NO 67 0 min 9,1 C 7,2 km/h (2 Bft)
02.04.2016 19:00 14,7 C 15,5 C 69 % 1014,8 hPa 0,0 mm 2,1 km/h (1 Bft) O-NO 67 0 min 9,1 C 0,0 km/h (0 Bft)
02.04.2016 19:05 14,5 C 15,0 C 69 % 1014,8 hPa 0,0 mm 1,5 km/h (1 Bft) O-SO 112 0 min 8,9 C 0,0 km/h (0 Bft)
02.04.2016 19:10 14,4 C 14,8 C 69 % 1014,8 hPa 0,0 mm 0,9 km/h (0 Bft) NW 315 0 min 8,8 C 8,0 km/h (2 Bft)
02.04.2016 19:15 14,1 C 14,5 C 69 % 1014,8 hPa 0,0 mm 0,9 km/h (0 Bft) S-SO 157 0 min 8,5 C 0,0 km/h (0 Bft)
02.04.2016 19:20 13,9 C 14,2 C 70 % 1014,8 hPa 0,0 mm 0,9 km/h (0 Bft) O 90 0 min 8,5 C 0,0 km/h (0 Bft)
02.04.2016 19:25 13,5 C 13,6 C 70 % 1014,8 hPa 0,0 mm 0,0 km/h (0 Bft) S 180 0 min 8,1 C 0,0 km/h (0 Bft)
02.04.2016 19:30 13,3 C 13,3 C 71 % 1014,8 hPa 0,0 mm 0,0 km/h (0 Bft) SO 135 0 min 8,2 C 3,3 km/h (1 Bft)
02.04.2016 19:35 13,1 C 13,0 C 73 % 1014,8 hPa 0,0 mm 0,0 km/h (0 Bft) O-SO 112 0 min 8,4 C 0,0 km/h (0 Bft)
02.04.2016 19:40 12,8 C 12,7 C 75 % 1014,8 hPa 0,0 mm 0,0 km/h (0 Bft) O 90 0 min 8,5 C 0,0 km/h (0 Bft)
02.04.2016 19:45 12,5 C 12,3 C 75 % 1014,8 hPa 0,0 mm 0,6 km/h (0 Bft) S 180 0 min 8,2 C 3,0 km/h (1 Bft)
02.04.2016 19:50 12,3 C 12,1 C 76 % 1014,8 hPa 0,0 mm 0,6 km/h (0 Bft) S 180 0 min 8,2 C 0,0 km/h (0 Bft)
02.04.2016 19:55 12,1 C 11,8 C 76 % 1014,8 hPa 0,0 mm 0,0 km/h (0 Bft) SW 225 0 min 8,0 C 0,0 km/h (0 Bft)
02.04.2016 20:00 12,1 C 11,8 C 77 % 1014,8 hPa 0,0 mm 0,6 km/h (0 Bft) O 90 0 min 8,2 C 0,0 km/h (0 Bft)
02.04.2016 20:05 11,8 C 11,6 C 77 % 1014,8 hPa 0,0 mm 1,8 km/h (1 Bft) S-SO 157 0 min 7,9 C 0,0 km/h (0 Bft)
02.04.2016 20:10 11,7 C 11,5 C 78 % 1014,9 hPa 0,0 mm 2,4 km/h (1 Bft) S-SO 157 0 min 8,0 C 5,1 km/h (1 Bft)
02.04.2016 20:15 11,6 C 11,3 C 78 % 1014,9 hPa 0,0 mm 2,1 km/h (1 Bft) S 180 0 min 7,9 C 4,2 km/h (1 Bft)
02.04.2016 20:20 11,5 C 11,3 C 77 % 1014,9 hPa 0,0 mm 1,8 km/h (1 Bft) S 180 0 min 7,6 C 0,0 km/h (0 Bft)
02.04.2016 20:25 11,4 C 11,2 C 77 % 1014,9 hPa 0,0 mm 1,5 km/h (1 Bft) S 180 0 min 7,5 C 3,3 km/h (1 Bft)
02.04.2016 20:30 11,5 C 11,2 C 80 % 1014,8 hPa 0,0 mm 1,2 km/h (1 Bft) S-SO 157 0 min 8,2 C 3,3 km/h (1 Bft)
02.04.2016 20:35 11,4 C 11,1 C 80 % 1014,8 hPa 0,0 mm 0,9 km/h (0 Bft) O-SO 112 0 min 8,1 C 0,0 km/h (0 Bft)
02.04.2016 20:40 10,9 C 10,7 C 79 % 1014,8 hPa 0,0 mm 0,3 km/h (0 Bft) N 360 0 min 7,4 C 0,0 km/h (0 Bft)
02.04.2016 20:45 10,0 C 9,9 C 79 % 1014,8 hPa 0,0 mm 0,0 km/h (0 Bft) S-SO 157 0 min 6,5 C 0,0 km/h (0 Bft)
02.04.2016 20:50 10,4 C 10,1 C 81 % 1014,7 hPa 0,0 mm 0,9 km/h (0 Bft) S 180 0 min 7,3 C 4,2 km/h (1 Bft)
02.04.2016 20:55 10,6 C 10,3 C 83 % 1014,7 hPa 0,0 mm 3,0 km/h (1 Bft) S-SO 157 0 min 7,8 C 5,4 km/h (1 Bft)
02.04.2016 21:00 10,8 C 10,5 C 83 % 1014,7 hPa 0,0 mm 3,6 km/h (1 Bft) S 180 0 min 8,0 C 5,4 km/h (1 Bft)
02.04.2016 21:05 10,6 C 10,6 C 79 % 1014,7 hPa 0,0 mm 3,9 km/h (1 Bft) SO 135 0 min 7,1 C 3,6 km/h (1 Bft)
02.04.2016 21:08 10,3 C 10,3 C 83 % 1014,9 hPa 0,0 mm 3,6 km/h (1 Bft) SO 135 0 min 7,5 C 4,8 km/h (1 Bft)
02.04.2016 21:11 10,3 C 10,3 C 83 % 1014,9 hPa 0,0 mm 3,6 km/h (1 Bft) SO 135 0 min 7,5 C 4,8 km/h (1 Bft)
02.04.2016 21:15 10,2 C 10,2 C 79 % 1014,9 hPa 0,0 mm 1,8 km/h (1 Bft) S 180 0 min 6,7 C 0,0 km/h (0 Bft)
02.04.2016 21:20 10,2 C 10,1 C 80 % 1014,9 hPa 0,0 mm 0,9 km/h (0 Bft) O-SO 112 0 min 6,9 C 0,0 km/h (0 Bft)
02.04.2016 21:25 9,9 C 9,7 C 83 % 1014,9 hPa 0,0 mm 0,3 km/h (0 Bft) O-NO 67 0 min 7,2 C 0,0 km/h (0 Bft)
02.04.2016 21:30 9,7 C 9,5 C 83 % 1014,6 hPa 0,0 mm 0,0 km/h (0 Bft) W-SW 247 0 min 7,0 C 0,0 km/h (0 Bft)
02.04.2016 21:35 9,2 C 9,1 C 82 % 1014,6 hPa 0,0 mm 0,3 km/h (0 Bft) NW 315 0 min 6,3 C 5,4 km/h (1 Bft)
02.04.2016 21:40 9,1 C 9,0 C 82 % 1014,6 hPa 0,0 mm 0,6 km/h (0 Bft) O-SO 112 0 min 6,2 C 0,0 km/h (0 Bft)
02.04.2016 21:45 9,4 C 9,2 C 80 % 1014,6 hPa 0,0 mm 0,6 km/h (0 Bft) S 180 0 min 6,1 C 0,0 km/h (0 Bft)
02.04.2016 21:50 9,7 C 9,7 C 80 % 1014,5 hPa 0,0 mm 0,6 km/h (0 Bft) W 270 0 min 6,4 C 0,0 km/h (0 Bft)
02.04.2016 21:55 9,5 C 9,4 C 83 % 1014,5 hPa 0,0 mm 0,9 km/h (0 Bft) NO 45 0 min 6,8 C 0,0 km/h (0 Bft)
02.04.2016 22:00 9,2 C 9,1 C 82 % 1014,5 hPa 0,0 mm 0,0 km/h (0 Bft) O-NO 67 0 min 6,3 C 0,0 km/h (0 Bft)
02.04.2016 22:05 8,8 C 8,7 C 82 % 1014,5 hPa 0,0 mm 0,0 km/h (0 Bft) O-SO 112 0 min 5,9 C 0,0 km/h (0 Bft)
02.04.2016 22:10 8,9 C 8,7 C 83 % 1014,6 hPa 0,0 mm 0,0 km/h (0 Bft) O-NO 67 0 min 6,2 C 0,0 km/h (0 Bft)
02.04.2016 22:15 9,2 C 8,9 C 83 % 1014,6 hPa 0,0 mm 0,0 km/h (0 Bft) SO 135 0 min 6,5 C 0,0 km/h (0 Bft)
02.04.2016 22:20 9,3 C 9,1 C 80 % 1014,6 hPa 0,0 mm 0,0 km/h (0 Bft) W 270 0 min 6,0 C 0,0 km/h (0 Bft)
02.04.2016 22:25 9,3 C 9,0 C 81 % 1014,6 hPa 0,0 mm 0,0 km/h (0 Bft) NO 45 0 min 6,2 C 0,0 km/h (0 Bft)
02.04.2016 22:30 8,8 C 8,6 C 80 % 1014,4 hPa 0,0 mm 0,0 km/h (0 Bft) SW 225 0 min 5,5 C 0,0 km/h (0 Bft)
02.04.2016 22:35 8,8 C 8,6 C 80 % 1014,4 hPa 0,0 mm 0,0 km/h (0 Bft) O 90 0 min 5,5 C 0,0 km/h (0 Bft)
02.04.2016 22:40 8,2 C 8,1 C 79 % 1014,4 hPa 0,0 mm 0,0 km/h (0 Bft) N-NO 22 0 min 4,8 C 0,0 km/h (0 Bft)
02.04.2016 22:45 8,2 C 8,0 C 81 % 1014,4 hPa 0,0 mm 0,3 km/h (0 Bft) O-NO 67 0 min 5,1 C 0,0 km/h (0 Bft)
02.04.2016 22:50 8,0 C 7,8 C 81 % 1014,2 hPa 0,0 mm 0,3 km/h (0 Bft) N-NW 337 0 min 4,9 C 0,0 km/h (0 Bft)
02.04.2016 22:55 7,9 C 7,6 C 82 % 1014,2 hPa 0,0 mm 0,0 km/h (0 Bft) SW 225 0 min 5,0 C 0,0 km/h (0 Bft)
02.04.2016 23:00 7,8 C 7,5 C 82 % 1014,2 hPa 0,0 mm 0,0 km/h (0 Bft) NO 45 0 min 4,9 C 0,0 km/h (0 Bft)
02.04.2016 23:05 8,4 C 8,0 C 83 % 1014,2 hPa 0,0 mm 1,2 km/h (1 Bft) S 180 0 min 5,7 C 4,2 km/h (1 Bft)
02.04.2016 23:10 8,6 C 8,2 C 81 % 1014,1 hPa 0,0 mm 1,2 km/h (1 Bft) S-SO 157 0 min 5,5 C 0,0 km/h (0 Bft)
02.04.2016 23:15 8,7 C 8,3 C 79 % 1014,1 hPa 0,0 mm 0,6 km/h (0 Bft) SW 225 0 min 5,3 C 4,5 km/h (1 Bft)
02.04.2016 23:20 7,9 C 7,8 C 78 % 1014,1 hPa 0,0 mm 0,6 km/h (0 Bft) O-SO 112 0 min 4,3 C 0,0 km/h (0 Bft)
02.04.2016 23:25 7,8 C 7,6 C 79 % 1014,1 hPa 0,0 mm 0,6 km/h (0 Bft) O-NO 67 0 min 4,4 C 0,0 km/h (0 Bft)
02.04.2016 23:30 7,9 C 7,7 C 79 % 1013,9 hPa 0,0 mm 0,0 km/h (0 Bft) O 90 0 min 4,5 C 0,0 km/h (0 Bft)
02.04.2016 23:35 7,6 C 7,5 C 79 % 1013,9 hPa 0,0 mm 0,6 km/h (0 Bft) W 270 0 min 4,2 C 3,3 km/h (1 Bft)
02.04.2016 23:40 7,6 C 7,5 C 79 % 1013,9 hPa 0,0 mm 0,9 km/h (0 Bft) SW 225 0 min 4,2 C 5,1 km/h (1 Bft)
02.04.2016 23:45 8,3 C 8,0 C 79 % 1013,9 hPa 0,0 mm 0,9 km/h (0 Bft) S-SO 157 0 min 4,9 C 0,0 km/h (0 Bft)
02.04.2016 23:50 8,6 C 8,4 C 79 % 1013,9 hPa 0,0 mm 0,6 km/h (0 Bft) N-NO 22 0 min 5,2 C 0,0 km/h (0 Bft)
02.04.2016 23:55 8,5 C 8,3 C 79 % 1013,9 hPa 0,0 mm 0,3 km/h (0 Bft) NO 45 0 min 5,1 C 0,0 km/h (0 Bft)
_ Min-Zeit 07:20 07:20 17:55 23:55 - 23:30 - - - 06:35 23:55
Minimum _ 5,4 C 5,4 C 64 % 1013,9 hPa - 0,0 km/h (0 Bft) - - - 3,6 C 0,0 km/h (0 Bft)
_ Max-Zeit 18:05 15:10 07:25 03:25 23:55 16:30 - - 15:55 15:05 17:15
Maximum _ 16,2 C 20,2 C 93 % 1017,9 hPa 0,0 mm 16,7 km/h
N-NO (3 Bft)
- - 5 min 9,9 C 28,6 km/h
NO (4 Bft)
Durchschnitt _ 9,0 C 9,9 C 83 % 1016,2 hPa #0,0 mm 5,2 km/h (1 Bft) NO - #1:25 h 6,2 C 6,7 km/h (2 Bft)